{"data":{"norad_id":61227,"intl_designator":"2024-173A","name":"2024-173A","alt_names":[],"object_type":"PAYLOAD","status":"ACTIVE","operator":null,"country":"PRC","launch_date":"2024-09-24","launch_site_code":"YSLA","launch_vehicle":null,"mission":null,"orbit_class":"UNKNOWN","rcs_meters":null,"size_class":null,"mass_kg":null,"dimensions":null,"purposes":[],"wikipedia_slug":null,"has_3d_model":false,"image_url":null,"decayed_at":null,"tle_current":{"epoch":"2026-05-25T04:31:55.559136Z","epoch_age_seconds":59072,"freshness":"FRESH","line1":"1 61227U 24173A   26145.18883749  .00085244  00000+0  82886-3 0  9998","line2":"2 61227  97.3402 232.0012 0002276 295.6994  64.4031 15.66021875 93467","mean_motion":15.66021875,"eccentricity":0.0002276,"inclination_deg":97.3402,"raan_deg":232.0012,"arg_perigee_deg":295.6994,"mean_anomaly_deg":64.4031,"bstar":0.00082886,"rev_number":9346,"period_min":91.952738527359,"perigee_km":368.76551545596,"apogee_km":371.83740464297,"semimajor_km":6748.4384600495,"source":"CELESTRAK","updated_at":"2026-05-25T13:38:02.343583Z"}}}